Location: Bonningues
(50.7927°N, 2.0150°E)
Time: 05:38:28
(UTC+00:00)

Meteor 2-6 Rocket - Pass Details

Date: 08 August 2020
Orbit: 806 x 914 km, 81.3° (Epoch: 19 September)

Event Time Altitude Azimuth Distance (km) Brightness Sun altitude
Rises 19:58:19 0° 346° (NNW) 3,355 8.1 -5.4°
Reaches altitude 10° 20:00:41 10° 346° (NNW) 2,429 7.4 -5.7°
Maximum altitude 20:06:11 84° 260° (W) 847 4.3 -6.5°
Drops below altitude 10° 20:11:48 10° 173° (S) 2,476 6.2 -7.2°
Sets 20:14:15 0° 172° (S) 3,425 6.9 -7.5°
